Weather observations for the past three days for
Norfolk, Stefan Memorial Airport
| Date | Time (cdt) | Wind (mph) | Vis. (mi.) | Weather | Sky Cond. | Temperature (ºF) | Relative Humidity | Wind Chill (°F) | Heat Index (°F) | Pressure | Precipitation (in) | ||||||
|---|---|---|---|---|---|---|---|---|---|---|---|---|---|---|---|---|---|
| Air | Dwpt | 6 hour | altimeter (in) | sea level (mb) | 1 hr | 3 hr | 6 hr | ||||||||||
| Max. | Min. | ||||||||||||||||
| 05 | 03:56 | SE 7 | 10.00 | Fair | CLR | 73 | 72 | 96% | 29.88 | 1010.1 | |||||||
| 05 | 02:56 | SE 8 | 9.00 | Fair | CLR | 75 | 73 | 94% | 73 | 29.9 | 1010.6 | ||||||
| 05 | 01:56 | SE 7 | 9.00 | Fair | CLR | 75 | 73.9 | 96% | 73 | 29.91 | 1011.2 | ||||||
| 05 | 00:56 | SE 5 | 10.00 | Fair | CLR | 75 | 73.9 | 89.1 | 75 | 96% | 73 | 29.92 | 1011.5 | ||||
| 04 | 23:56 | SE 7 | 10.00 | Fair | CLR | 77 | 75 | 94% | 78 | 29.92 | 1011.5 | ||||||
| 04 | 22:56 | SE 6 | 10.00 | Fair | CLR | 79 | 75 | 88% | 83 | 29.91 | 1011.4 | ||||||
| 04 | 21:56 | SE 6 | 10.00 | Fair | CLR | 78.1 | 75 | 90% | 81 | 29.91 | 1011.3 | ||||||
| 04 | 20:56 | SE 7 | 10.00 | Fair | CLR | 80.1 | 75 | 85% | 85 | 29.89 | 1010.7 | ||||||
| 04 | 19:56 | SE 6 | 10.00 | Fair | CLR | 84.9 | 75.9 | 75% | 94 | 29.88 | 1010.4 | ||||||
| 04 | 18:56 | SE 8 | 10.00 | Fair | CLR | 89.1 | 73.9 | 96.1 | 89.1 | 61% | 98 | 29.87 | 1009.9 | ||||
| 04 | 17:56 | S 9 | 10.00 | Fair | CLR | 93 | 75 | 56% | 104 | 29.88 | 1010.2 | ||||||
| 04 | 16:56 | E 6 | 10.00 | Fair | CLR | 91.9 | 73.9 | 56% | 102 | 29.87 | 1010.0 | ||||||
| 04 | 15:56 | E 9 | 10.00 | Fair | CLR | 93.9 | 71.1 | 48% | 101 | 29.88 | 1010.0 | ||||||
| 04 | 14:56 | Calm | 10.00 | Fair | CLR | 93.9 | 71.1 | 48% | 101 | 29.88 | 1010.1 | ||||||
| 04 | 13:56 | Vrbl 5 | 10.00 | Fair | CLR | 93 | 72 | 50% | 101 | 29.89 | 1010.4 | ||||||
| 04 | 12:56 | Vrbl 6 | 10.00 | Fair | CLR | 91 | 72 | 91.9 | 66.9 | 54% | 99 | 29.9 | 1010.6 | ||||
| 04 | 11:56 | NE 3 | 10.00 | Fair | CLR | 89.1 | 71.1 | 55% | 95 | 29.9 | 1010.6 | ||||||
| 04 | 10:56 | Calm | 10.00 | Fair | CLR | 84.9 | 71.1 | 63% | 90 | 29.89 | 1010.6 | ||||||
| 04 | 09:56 | Calm | 10.00 | Fair | CLR | 81 | 71.1 | 72% | 85 | 29.9 | 1011.0 | ||||||
| 04 | 08:56 | W 6 | 10.00 | Fair | CLR | 77 | 70 | 79% | 79 | 29.9 | 1011.0 | ||||||
| 04 | 07:56 | Calm | 10.00 | Fair | CLR | 70 | 66.9 | 90% | 29.88 | 1010.6 | |||||||
| 04 | 06:56 | SW 3 | 10.00 | Fair | CLR | 68 | 66 | 75.9 | 66.9 | 93% | 29.86 | 1009.6 | |||||
| 04 | 05:56 | W 5 | 10.00 | Fair | CLR | 68 | 66 | 93% | 29.84 | 1009.1 | |||||||
| 04 | 04:56 | Calm | 10.00 | Fair | CLR | 71.1 | 66 | 84% | 29.83 | 1008.6 | |||||||
| 04 | 03:56 | S 6 | 10.00 | Fair | CLR | 72 | 66.9 | 84% | 29.81 | 1007.8 | |||||||
| 04 | 02:56 | Calm | 10.00 | Fair | CLR | 73 | 68 | 84% | 29.81 | 1007.7 | |||||||
| 04 | 01:56 | S 7 | 10.00 | Fair | CLR | 75 | 68 | 79% | 76 | 29.81 | 1007.6 | ||||||
| 04 | 00:56 | SE 9 | 10.00 | Fair | CLR | 75 | 70 | 91 | 75 | 84% | 75 | 29.8 | 1007.5 | ||||
| 03 | 23:56 | SE 10 | 10.00 | Fair | CLR | 78.1 | 71.1 | 79% | 80 | 29.8 | 1007.5 | ||||||
| 03 | 22:56 | SE 7 | 10.00 | Fair | CLR | 80.1 | 72 | 76% | 84 | 29.81 | 1007.6 | ||||||
| 03 | 21:56 | E 3 | 9.00 | Fair | CLR | 79 | 73 | 82% | 82 | 29.8 | 1007.6 | ||||||
| 03 | 20:56 | SE 5 | 10.00 | Fair | CLR | 79 | 73 | 82% | 82 | 29.8 | 1007.5 | ||||||
| 03 | 19:56 | Calm | 10.00 | Fair | CLR | 84.9 | 73 | 68% | 92 | 29.78 | 1006.8 | ||||||
| 03 | 18:56 | W 3 | 10.00 | Fair | CLR | 91 | 71.1 | 93.9 | 90 | 52% | 98 | 29.78 | 1006.6 | ||||
| 03 | 17:56 | W 7 | 10.00 | Fair | CLR | 91.9 | 70 | 49% | 98 | 29.77 | 1006.1 | ||||||
| 03 | 16:56 | S 9 G 18 | 10.00 | Fair | CLR | 93 | 69.1 | 46% | 98 | 29.77 | 1006.2 | ||||||
| 03 | 15:56 | SW 13 | 10.00 | Fair | CLR | 93 | 69.1 | 46% | 98 | 29.77 | 1006.4 | ||||||
| 03 | 14:56 | SW 14 G 22 | 10.00 | Fair | CLR | 91.9 | 68 | 46% | 96 | 29.78 | 1006.7 | ||||||
| 03 | 13:56 | SW 12 | 10.00 | Fair | CLR | 91.9 | 68 | 46% | 96 | 29.79 | 1006.9 | ||||||
| 03 | 12:56 | SW 17 | 10.00 | Fair | CLR | 91 | 66.9 | 91 | 75 | 45% | 94 | 29.8 | 1007.2 | ||||
| 03 | 11:56 | S 15 | 10.00 | Fair | CLR | 89.1 | 66 | 47% | 92 | 29.79 | 1006.9 | ||||||
| 03 | 10:56 | SW 15 | 10.00 | Fair | CLR | 86 | 66 | 51% | 88 | 29.8 | 1007.4 | ||||||
| 03 | 09:56 | SW 10 | 10.00 | Fair | CLR | 82.9 | 64.9 | 55% | 85 | 29.81 | 1007.7 | ||||||
| 03 | 08:56 | SW 15 | 10.00 | Fair | CLR | 79 | 64 | 60% | 81 | 29.81 | 1008.0 | ||||||
| 03 | 07:56 | SW 15 | 10.00 | Fair | CLR | 75.9 | 64 | 67% | 78 | 29.8 | 1007.6 | ||||||
| 03 | 06:56 | SW 16 G 26 | 10.00 | Fair | CLR | 75.9 | 64 | 81 | 75.9 | 67% | 78 | 29.78 | 1006.7 | ||||
| 03 | 05:56 | S 20 G 26 | 10.00 | Fair | CLR | 78.1 | 64 | 62% | 80 | 29.77 | 1006.2 | ||||||
| 03 | 04:56 | S 18 | 10.00 | Fair | CLR | 80.1 | 64 | 58% | 82 | 29.77 | 1006.3 | ||||||
| 03 | 03:56 | S 17 G 26 | 10.00 | Fair | CLR | 80.1 | 64 | 58% | 82 | 29.78 | 1006.6 | ||||||
| 03 | 02:56 | S 16 G 25 | 10.00 | Fair | CLR | 80.1 | 63 | 56% | 81 | 29.79 | 1006.9 | ||||||
| 03 | 01:56 | S 17 | 10.00 | Fair | CLR | 81 | 63 | 54% | 82 | 29.8 | 1007.2 | ||||||
| 03 | 00:56 | S 16 | 10.00 | Fair | CLR | 81 | 64 | 89.1 | 79 | 57% | 83 | 29.8 | 1007.4 | ||||
| 02 | 23:56 | S 13 | 10.00 | Fair | CLR | 80.1 | 64.9 | 60% | 82 | 29.8 | 1007.4 | ||||||
| 02 | 22:56 | S 14 | 10.00 | Fair | CLR | 82 | 66 | 58% | 84 | 29.8 | 1007.5 | ||||||
| 02 | 21:56 | SE 7 | 10.00 | Fair | CLR | 79 | 72 | 79% | 82 | 29.8 | 1007.6 | ||||||
| 02 | 20:56 | SE 6 | 10.00 | Fair | CLR | 80.1 | 73 | 79% | 84 | 29.8 | 1007.5 | ||||||
| 02 | 19:56 | SE 5 | 10.00 | Fair | CLR | 82.9 | 72 | 70% | 88 | 29.79 | 1007.5 | ||||||
| 02 | 18:56 | S 9 | 10.00 | Fair | CLR | 89.1 | 70 | 95 | 89.1 | 53% | 94 | 29.8 | 1007.5 | ||||
| 02 | 17:56 | S 12 | 10.00 | Fair | CLR | 91.9 | 71.1 | 51% | 99 | 29.81 | 1007.8 | ||||||
| 02 | 16:56 | S 13 | 10.00 | Fair | CLR | 93 | 71.1 | 49% | 100 | 29.81 | 1007.9 | ||||||
| 02 | 15:56 | S 13 | 10.00 | Fair | CLR | 93.9 | 66.9 | 41% | 98 | 29.82 | 1008.2 | ||||||
| 02 | 14:56 | S 13 | 10.00 | Fair | CLR | 93.9 | 69.1 | 44% | 99 | 29.83 | 1008.5 | ||||||
| 02 | 13:56 | S 9 | 10.00 | Fair | CLR | 91.9 | 68 | 46% | 96 | 29.85 | 1009.1 | ||||||
| 02 | 12:56 | S 10 | 10.00 | Fair | CLR | 89.1 | 68 | 89.1 | 68 | 50% | 93 | 29.86 | 1009.5 | ||||
| 02 | 11:56 | SW 8 | 10.00 | Fair | CLR | 86 | 66 | 51% | 88 | 29.87 | 1010.0 | ||||||
| 02 | 10:56 | SW 6 | 10.00 | Fair | CLR | 82.9 | 66 | 57% | 85 | 29.87 | 1010.2 | ||||||
| 02 | 09:56 | S 7 | 10.00 | Fair | CLR | 78.1 | 64.9 | 64% | 80 | 29.87 | 1010.1 | ||||||
| 02 | 07:56 | SE 5 | 10.00 | Fair | CLR | 69.1 | 64.9 | 87% | 29.87 | 1010.3 | |||||||
| 02 | 06:56 | SE 10 | 10.00 | A Few Clouds | FEW120 | 68 | 64.9 | 73.9 | 68 | 90% | 29.86 | 1009.9 | |||||
| 02 | 05:56 | E 12 | 10.00 | Fair | CLR | 69.1 | 64.9 | 87% | 29.86 | 1009.7 | |||||||
| 02 | 04:56 | E 8 | 10.00 | Fair | CLR | 68 | 64.9 | 90% | 29.88 | 1010.3 | |||||||
| Date | Time (cdt) | Wind (mph) | Vis. (mi.) | Weather | Sky Cond. | Air | Dwpt | Max. | Min. | Relative Humidity | Wind Chill (°F) | Heat Index (°F) | altimeter (in) | sea level (mb) | 1 hr | 3 hr | 6 hr |
| 6 hour | |||||||||||||||||
| Temperature (ºF) | Pressure | Precipitation (in) | |||||||||||||||